Location: Pasadena, ca
(34.1243°N, 118.1037°W)
Time: 09:18:08
(UTC-07:00)

Tiangong 1 - Pass Details

Date: 08 October 2017
Orbit: 293 x 320 km, 42.8° (Epoch: 20 October)

Event Time Altitude Azimuth Distance (km) Brightness Sun altitude
Rises 18:59:42 0° 279° (W) 2,040 6.8 -7.6°
Reaches altitude 10° 19:02:04 10° 300° (WNW) 1,205 4.6 -8.1°
Maximum altitude 19:04:01 18° 347° (NNW) 870 3.0 -8.5°
Drops below altitude 10° 19:05:57 10° 33° (NNE) 1,195 3.2 -8.9°
Enters shadow 19:06:39 - 42° (NE) 1,419 3.5 -9.1°
